Regional Weather Roundup
Issued by NWS

Home | Current Version | Previous Version | Graphics & Text | Print | Product List | Glossary On
Versions: 1 2 3 4 5 6 7 8 9 10 11 12 13 14 15 16 17 18 19 20 21 22 23 24 25 26 27 28
000
ASUS45 KSLC 281710
RWRUT

UTAH REGIONAL WEATHER ROUNDUP
NATIONAL WEATHER SERVICE SALT LAKE CITY UT
1100 AM MDT TUE MAR 28 2017

UTZ001>011-023>025-281800-

NORTHERN UTAH

CITY           SKY/WX    TMP DP  RH WIND       PRES   REMARKS
BRIGHAM CITY     N/A     46  30  55 NW7       30.16S
DUGWAY         MOSUNNY   43  30  59 NW15      30.17R
HILL AFB       MOSUNNY   44  30  57 NW15      30.14R
LOGAN          SUNNY     46  33  60 N13G21    30.16R
OGDEN          SUNNY     45  32  60 NW15      30.14R
SALT LAKE CITY MOSUNNY   46  34  62 NW13      30.14S
TOOELE VALLEY    N/A     43  32  65 N17G24    30.17R
WENDOVER       SUNNY     47  19  33 CALM      30.21R
HEBER CITY     PTSUNNY   43  28  56 N14G20    30.09R
WEST JORDAN    MOSUNNY   46  42  84 NW20      30.14S

$$

UTZ011>015-024>027-281800-

CENTRAL/NORTHEAST UTAH

CITY           SKY/WX    TMP DP  RH WIND       PRES   REMARKS
PROVO AIRPORT  MOSUNNY   45  35  68 NW16      30.13R
MOAB/CANYONLAN CLOUDY    51  38  60 VRB6      29.91S
DELTA          MOSUNNY   41  32  70 NE3       30.17R
PRICE          MOSUNNY   44  29  55 NW21G31   29.97R
RICHFIELD      CLOUDY    41  32  70 E7        30.14R
ROOSEVELT      CLOUDY    46  37  71 E5        29.99R
VERNAL         CLOUDY    50  29  44 N15G22    29.96R

$$

UTZ013>016-019>022-027-281800-

SOUTHERN UTAH

CITY           SKY/WX    TMP DP  RH WIND       PRES   REMARKS
BRYCE CANYON   CLOUDY    34  25  69 NW12G18   30.04R WCI  25
CEDAR CITY     CLOUDY    37  27  67 NE12G21   30.11S WCI  29
MILFORD        CLOUDY    42  30  62 NE18      30.15R
ST GEORGE      MOSUNNY   58  25  28 NE22G29   30.04S
HANKSVILLE     PTSUNNY   54  28  37 N13G18    29.96S
KANAB          MOSUNNY   50  25  37 NW25G38   30.05R
BLANDING       CLOUDY    42  40  91 W5        29.96S

$$

REGIONAL REPORTS     COLORADO/ARIZONA

CITY           SKY/WX    TMP DP  RH WIND       PRES   REMARKS
CRAIG, CO      LGT RAIN  36  33  89 SW10      29.94R WCI  28
GRAND JUNCTION CLOUDY    47  41  80 W8        29.91R
RIFLE, CO      CLOUDY    46  40  79 W7        29.90R
MONTROSE, CO   LGT RAIN  42  39  89 W6        29.92S
CORTEZ, CO     CLOUDY    43  37  79 NW6       29.89R
COLORADO CITY    N/A     50  27  40 NW7       30.05S
PAGE, AZ       CLOUDY    54  27  35 N8        29.94R
GRAND CANYON   PTSUNNY   44  26  49 NE10G18   29.99R
KINGMAN, AZ    SUNNY     55  13  18 N21G26    30.02R
FLAGSTAFF, AZ  CLOUDY    40  28  62 W7        29.94R

$$

REGIONAL REPORTS    NEVADA/IDAHO/WYOMING

CITY           SKY/WX    TMP DP  RH WIND       PRES   REMARKS
LAS VEGAS, NV  MOSUNNY   61  19  19 NW21G29   30.08R
ELY, NY        SUNNY     36  25  64 N16       30.20R WCI  26
ELKO, NV       SUNNY     41  23  48 CALM      30.25F
POCATELLO, ID  MOSUNNY   40  32  73 SW12      30.21S WCI  33
BURLEY, ID     PTSUNNY   42  28  57 W17G23    30.21F
FORT BRIDGER,  CLOUDY    37  35  92 W13       30.12R WCI  28
EVANSTON, WY   CLOUDY    34  26  72 N21       30.10R WCI  22
ROCK SPRINGS,  HVY SNOW  33  31  92 N13       30.05R VSB 1/4 WCI  24
KEMMERER, WY     N/A     34  30  86 W10       30.08S WCI  26

$$




USA.gov is the U.S. government's official web portal to all federal, state and local government web resources and services.